Regional Weather Roundup
Issued by NWS

Home | Current Version | Previous Version | Text Only | Print | Product List | Glossary Off
Versions: 1 2 3 4 5 6 7 8 9 10 11 12 13 14 15 16 17 18 19 20 21 22 23 24 25 26 27 28 29 30 31 32 33 34 35 36 37 38 39 40 41 42 43 44 45 46 47 48 49 50

000
ASUS43 KMPX 280201
RWRMN
WEATHER ROUNDUP FOR MINNESOTA
NATIONAL WEATHER SERVICE TWIN CITIES/CHANHASSEN MN
900 PM CDT SUN JUL 27 2014


NOTE: "FAIR" INDICATES FEW OR NO CLOUDS BELOW 12,000 FEET WITH NO
SIGNIFICANT WEATHER AND/OR OBSTRUCTIONS TO VISIBILITY. N/A MEANS
CURRENT SKY AND/OR WEATHER CONDITIONS ARE NOT AVAILABLE.

MNZ060>063-068>070-280300-
   Twin Cities Metro

CITY           SKY/WX    TMP DP  RH WIND       PRES   REMARKS
TWIN CITIES    MOCLDY    67  58  72 N14       30.07R
ST PAUL        PTCLDY    67  56  67 NE12      30.07R
CRYSTAL        MOCLDY    68  58  70 N6        30.07R
BLAINE         MOCLDY    68  61  77 N7        30.08
LAKEVILLE      CLOUDY    66  57  72 NE9       30.07R
EDEN PRAIRIE   CLEAR     67  58  72 N6        30.06R
SOUTH ST PAUL  CLEAR     67  56  67 NE5       30.07R
LAKE ELMO      MOCLDY    63  55  77 NE8       30.08R
$$
MNZ001>005-007-008-013>017-022>024-027-028-280300-
   Northwest Minnesota

CITY           SKY/WX    TMP DP  RH WIND       PRES   REMARKS
BEMIDJI        CLOUDY    62  56  80 NW6       30.15S
HALLOCK        CLOUDY    64  57  77 CALM      30.19R
ROSEAU         CLEAR     63  55  77 NW6       30.17S
WARROAD        PTCLDY    63  55  77 W6        30.17R
THIEF RVR FALL CLOUDY    63  55  77 NW8       30.18S
CROOKSTON      CLOUDY    64  59  82 N7        30.19S
FOSSTON        CLOUDY    61  55  82 NW6       30.18S
DETROIT LAKES  CLOUDY    61  59  94 N8        30.18S
MOORHEAD       CLOUDY    63  61  94 N10       30.19R
PARK RAPIDS    CLOUDY    63  58  83 N7        30.15R
$$
MNZ006-009>011-018-025>026-280300-
   North Central Minnesota

CITY           SKY/WX    TMP DP  RH WIND       PRES   REMARKS
BAUDETTE       PTCLDY    63  54  72 N3        30.15S
FLAG ISLAND    CLEAR     68  54  60 N8        30.14S
INTL FALLS     MOCLDY    60  54  80 NW5       30.12R
WASKISH        MOCLDY    64  54  68 CALM      30.15R
BIG FORK       MOCLDY    61  55  82 CALM      30.13S
LONGVILLE      CLOUDY    63  57  82 CALM      30.13R
GRAND RAPIDS   PTCLDY    61  54  77 NW5       30.12R
CRANE LAKE     PTCLDY    57  55  94 CALM      30.12R
ORR            PTCLDY    57  54  88 CALM      30.09R
COOK           PTCLDY    61  54  77 CALM      30.11R
$$
MNZ012-019>021-037-280300-
   Northeast Minnesota

CITY           SKY/WX    TMP DP  RH WIND       PRES   REMARKS
DULUTH         MOCLDY    58  56  93 W7        30.08R
ELY            CLEAR     61  52  72 CALM      30.09R
HIBBING        CLEAR     59  53  80 NW6       30.10R
EVELETH        CLEAR     61  52  72 NW6       30.11R
DULUTH HARBOR  PTCLDY    63  59  88 W10       30.07S
TWO HARBORS    CLEAR     59  54  82 CALM      30.05R
SILVER BAY     CLEAR     57  55  94 NW3       30.05R
GRAND MARAIS     N/A     50  47  89 CALM      30.05R
G MARAIS ARPRT   N/A     57  48  72 NW3       30.09R
$$
MNZ029>031-032-039>041-046>048-054>057-064-280300-
   West Central Minnesota

CITY           SKY/WX    TMP DP  RH WIND       PRES   REMARKS
FERGUS FALLS   PTCLDY    63  55  77 N12G17    30.16S
WHEATON        CLOUDY    63  55  77 NW9       30.19R
MORRIS         CLEAR     63  57  82 NW12      30.15R
ALEXANDRIA     CLOUDY    65  59  81 NW13      30.16R
ELBOW LAKE     MOCLDY    63  57  82 N12G18    30.16R
WADENA         CLOUDY    61  59  94 N14       30.15R
GLENWOOD       CLEAR     64  59  82 NW9       30.15R
APPLETON       CLEAR     64  55  72 NW10      30.15R
BENSON         MOCLDY    64  57  77 N12       30.14R
ORTONVILLE     CLOUDY    64  55  72 N10G16    30.17R
MADISON        MOCLDY    66  57  72 NW12G20   30.16R
WILLMAR        RAIN      64  61  88 NW12      30.14R
$$
MNZ033>034-036-042>043-049>051-058-059-280300-
   Central Minnesota

CITY           SKY/WX    TMP DP  RH WIND       PRES   REMARKS
ST CLOUD       MOCLDY    67  58  72 NE5       30.10R
SAUK CENTRE    CLOUDY    64  61  91 NW9       30.12S
PAYNESVILLE    CLOUDY    64  59  85 W6        30.11S
AITKIN         CLOUDY    64  57  77 CALM      30.10S
PINE RIVER     CLOUDY    64  57  77 N6        30.16R
BRAINERD       CLOUDY    63  56  78 N6        30.13R
STAPLES        CLOUDY    63  57  82 N3        30.13R
LONG PRAIRIE   CLOUDY    61  59  94 NW7       30.14R
LITTLE FALLS   CLOUDY    64  54  68 CALM      30.11S
LITCHFIELD     RAIN      64  64 100 N5        30.11R
BUFFALO        CLEAR     65  57  73 N8        30.10R
MAPLE LAKE     PTCLDY    65  59  81 N7        30.10R
$$
MNZ037-044-045-052-053-280300-
   East Central Minnesota

CITY           SKY/WX    TMP DP  RH WIND       PRES   REMARKS
PRINCETON      PTCLDY    64  57  77 N7        30.10R
MORA           CLOUDY    59  54  82 CALM      30.12R
CAMBRIDGE      CLEAR     64  54  68 N3        30.08R
RUSH CITY      MOCLDY    62  55  79 N5        30.09R
MOOSE LAKE     CLOUDY    59  55  88 CALM      30.08S
HINCKLEY       CLOUDY    61  55  82 NW3       30.10R
CLOQUET        PTCLDY    57  55  94 W5        30.10R
MCGREGOR       CLOUDY    61  59  94 CALM      30.12R
$$
MNZ071>073-080-081-089-090-097-098-280300-
   Southwest Minnesota

CITY           SKY/WX    TMP DP  RH WIND       PRES   REMARKS
MONTEVIDEO     CLEAR     64  57  77 N9        30.15R
GRANITE FALLS  CLEAR     64  57  80 NW9       30.15S
CANBY          CLOUDY    64  55  73 N8        30.18R
MARSHALL       PTCLDY    63  54  72 NW14      30.14R
REDWOOD FALLS  PTCLDY    67  58  72 NW13G21   30.11R
OLIVIA         CLOUDY    68  59  73 NW13G22   30.11R
PIPESTONE      CLOUDY    64  55  72 N6        30.18R
WINDOM         CLEAR     64  57  77 NW12      30.13R
WORTHINGTON    CLEAR     63  55  77 NW10      30.16R
JACKSON        CLEAR     64  55  72 NW12      30.13R
TRACY          PTCLDY    64  57  77 NW14G21   30.15R
SLAYTON        CLEAR     62  56  81 CALM      30.17R
$$
MNZ065>067-074>077-082>085-091>093-280300-
   South Central Minnesota

CITY           SKY/WX    TMP DP  RH WIND       PRES   REMARKS
MANKATO        MOCLDY    66  57  72 NW7       30.07R
NEW ULM        CLOUDY    66  61  82 NW12      30.09R
ST JAMES       CLOUDY    68  57  68 NW12G18   30.11R
FAIRMONT       CLOUDY    68  55  64 NW12G18   30.10R
GLENCOE        PTCLDY    66  61  85 NW5       30.09R
FARIBAULT      MOCLDY    70  55  60 N8        30.06R
OWATONNA       PTCLDY    66  59  77 NW5       30.06R
WASECA         PTCLDY    61  54  77 NW7       30.08R
ALBERT LEA     PTCLDY    66  59  77 N9        30.05R
$$
MNZ078>079-086>088-094>096-280300-
   Southeast Minnesota

CITY           SKY/WX    TMP DP  RH WIND       PRES   REMARKS
ROCHESTER      LGT RAIN  65  60  84 N13       30.04R
RED WING       PTCLDY    64  54  68 NE8       30.05R
STANTON        PTCLDY    67  58  72 NE10      30.05R
DODGE CENTER   PTCLDY    66  61  82 N8        30.05R
WINONA         MOCLDY    70  59  68 N8        30.02R
AUSTIN         PTCLDY    66  61  82 N3        30.04R
PRESTON        CLEAR     65  62  90 N12       30.02R
$$
ABBREVIATIONS USED IN REMARKS
   TC - TEMPERATURES IN CELSIUS
  WCI - WIND CHILL INDEX
   HX - HEAT INDEX
  VSB - VISIBILITY
$$


USA.gov is the U.S. government's official web portal to all federal, state and local government web resources and services.